Location: Silverdale
(47.6506°N, 122.6941°W)
Time: 05:02:48
(UTC+00:00)

Altair - Pass Details

Date: 10 October 2022
Orbit: 1501 x 1682 km, 47.2° (Epoch: 04 December)

Event Time Altitude Azimuth Distance (km) Brightness Sun altitude
Rises 15:37:30 0° 283° (WNW) 4,824 9.5 11.2°
Reaches altitude 10° 15:40:34 10° 282° (WNW) 3,859 9.0 11.7°
Maximum altitude 15:50:27 75° 200° (SSW) 1,715 8.1 13.2°
Drops below altitude 10° 16:00:34 10° 117° (ESE) 3,941 12.9 14.7°
Sets 16:03:44 0° 116° (ESE) 4,929 12.1 15.2°
